[[{"header":{"parameterUnit":"m.s-1","parameterCategory":2,"la1":30.2991,"la2":30.254,"lo1":-89.0895,"lo2":-89.0444,"dy":0.0017,"dx":0.0017,"nx":28,"ny":28,"refTime":"2023-10-23T21:00:00:Z","depth":"0","parameterNumber":2,"parameterNumberName":"U-component_of_CURRENTS"},"data":[0,0,0,0,0,0,0,0,0,0,0,0,0,0,0,0,0,0,0,0,0,0,0,0,0,0,0,0,0,0,0,0,0,0,0,0,0,0,0,0,0,0,0,0,0,0,0,0,0,0,0,0,0,0,0,0,0,0,-0.2537,-0.2536,0,-0.2456,-0.2455,-0.2454,-0.2371,-0.2371,-0.237,-0.2369,-0.2234,-0.2232,-0.2229,0,0,0,0,0,0,0,0,0,0,0,0,0,-0.2551,-0.2551,-0.2537,-0.2536,-0.2536,-0.2457,-0.2455,-0.2453,-0.2371,-0.2371,-0.237,-0.2369,-0.2235,-0.2232,-0.2228,0,0,0,0,0,0,0,0,0,0,0,0,0,-0.2511,-0.2551,-0.2537,-0.2489,-0.2484,-0.2457,-0.2455,-0.2453,-0.2372,-0.2371,-0.237,-0.2369,-0.2237,-0.2232,-0.2228,-0.222,0,0,-0.2214,-0.2212,0,0,0,0,0,0,0,0,-0.2513,-0.251,-0.2497,-0.2492,-0.2487,-0.2427,-0.2411,-0.2374,-0.2372,-0.2409,-0.2369,-0.2368,-0.2298,-0.2288,-0.2269,-0.2214,-0.2208,-0.2214,-0.2211,-0.2209,-0.2208,0,0,0,0,0,0,0,-0.2516,-0.2512,-0.25,-0.2496,-0.249,-0.2448,-0.2442,-0.2403,-0.2355,-0.2406,-0.2401,-0.24,-0.2294,-0.2274,-0.2265,-0.2206,-0.2214,-0.221,-0.2207,-0.2205,-0.2148,-0.2149,0,0,0,0,0,0,-0.2541,-0.2516,-0.2503,-0.2498,-0.2504,-0.245,-0.2442,-0.2443,-0.2357,-0.2344,-0.2401,-0.2397,-0.2282,-0.227,-0.226,-0.2242,-0.2209,-0.2205,-0.2202,-0.2147,-0.2148,-0.2149,0,0,0,0,0,0,-0.2542,-0.2541,-0.2506,-0.2508,-0.2502,-0.2452,-0.2453,-0.2442,-0.243,-0.2355,-0.234,-0.2402,-0.228,-0.2266,-0.2232,-0.2236,-0.2203,-0.2199,-0.2145,-0.2147,-0.2149,-0.2207,0,0,0,0,0,0,-0.2543,-0.2542,-0.2552,-0.2511,-0.2503,-0.2504,-0.2454,-0.2442,-0.2433,-0.2427,-0.2351,-0.2336,-0.2279,-0.2239,-0.2228,-0.2229,-0.2195,-0.2144,-0.2146,-0.2148,-0.2204,-0.2211,-0.2217,0,0,0,0,0,-0.2543,-0.2566,-0.2553,-0.2551,-0.2519,-0.2506,-0.2498,-0.2454,-0.2435,-0.2438,-0.2382,-0.2339,-0.2245,-0.2236,-0.2223,-0.2223,-0.2143,-0.2145,-0.2148,-0.2201,-0.221,-0.2217,0,0,0,0,0,0,-0.2579,-0.2559,-0.2544,-0.2559,-0.2541,-0.2494,-0.2492,-0.2471,-0.243,-0.2423,-0.2348,-0.233,-0.2307,-0.2265,-0.2258,-0.2217,-0.2189,-0.2189,-0.2235,-0.2242,-0.2248,-0.2217,-0.2192,0,0,0,0,0,-0.2595,-0.2599,-0.2577,-0.2587,-0.2584,-0.2543,-0.2534,-0.2511,-0.2472,-0.2453,-0.2399,-0.2347,-0.2307,-0.2276,-0.2239,-0.221,-0.2154,-0.2206,-0.2212,-0.2218,-0.2186,-0.214,-0.2138,-0.2158,-0.2158,-0.2158,0,0,-0.2608,-0.2599,-0.26,-0.2594,-0.2571,-0.2556,-0.2533,-0.2531,-0.2507,-0.2446,-0.2399,-0.2374,-0.231,-0.2278,-0.2263,-0.2239,-0.2185,-0.2221,-0.2226,-0.219,-0.2142,-0.214,-0.2138,-0.2159,-0.2159,-0.2159,0,0,-0.2622,-0.2634,-0.2631,-0.2622,-0.2608,-0.2587,-0.2596,-0.2562,-0.2538,-0.2511,-0.2459,-0.2436,-0.2372,-0.2319,-0.2285,-0.2309,-0.2233,-0.2309,-0.2294,-0.2251,-0.2248,-0.2245,-0.2172,-0.2162,-0.2297,-0.2297,-0.2297,0,-0.2638,-0.2618,-0.2631,-0.2621,-0.2596,-0.2603,-0.2578,-0.257,-0.2527,-0.2494,-0.2506,-0.2412,-0.2384,-0.2311,-0.2321,-0.2319,-0.2268,-0.2268,-0.2257,-0.2252,-0.2248,-0.2174,-0.2162,-0.23,-0.23,-0.23,-0.2299,0,-0.2631,-0.2615,-0.2617,-0.2593,-0.2588,-0.2574,-0.2564,-0.2558,-0.2545,-0.2516,-0.2472,-0.2443,-0.2369,-0.2383,-0.2354,-0.2305,-0.2271,-0.2283,-0.2232,-0.2249,-0.2171,-0.2157,-0.2305,-0.2304,-0.2303,-0.2302,0,0,-0.262,-0.261,-0.2599,-0.2561,-0.2561,-0.2541,-0.2535,-0.2493,-0.2454,-0.2462,-0.2393,-0.2377,-0.2366,-0.2328,-0.2306,-0.2277,-0.2229,-0.2262,-0.2259,-0.2178,-0.2099,-0.2051,-0.2031,-0.2237,-0.2235,-0.2233,-0.2057,0,-0.2581,-0.2546,-0.2551,-0.2491,-0.2455,-0.2462,-0.2433,-0.2416,-0.2408,-0.2363,-0.236,-0.2305,-0.2343,-0.2307,-0.2293,-0.2243,-0.2194,-0.2273,-0.2102,-0.2096,-0.2043,-0.2014,-0.1975,-0.1812,-0.2043,-0.204,-0.2039,0,-0.2522,-0.2502,-0.2453,-0.2384,-0.2369,-0.2352,-0.2287,-0.227,-0.2248,-0.2235,-0.2217,-0.2213,-0.217,-0.2217,-0.2127,-0.2172,-0.2126,-0.2102,-0.2095,-0.2009,-0.2022,-0.1833,-0.1777,-0.1782,-0.2016,-0.2018,-0.202,0,-0.2438,-0.2398,-0.2348,-0.2333,-0.2299,-0.2267,-0.2247,-0.2224,-0.2171,-0.2156,-0.2112,-0.2095,-0.2052,-0.203,-0.2005,-0.205,-0.19,-0.1956,-0.1858,-0.1853,-0.176,-0.175,-0.1673,-0.1867,-0.1867,-0.1868,-0.1868,0,-0.2348,-0.2285,-0.2308,-0.2275,-0.2158,-0.2199,-0.2094,-0.2071,-0.2055,-0.1981,-0.2035,-0.1968,-0.2004,-0.1942,-0.1944,-0.1841,-0.1843,-0.1818,-0.1797,-0.1781,-0.1776,-0.173,-0.1758,-0.1861,-0.1863,-0.1864,-0.1865,0,-0.2203,-0.2247,-0.214,-0.2121,-0.2108,-0.2014,-0.1955,-0.1895,-0.1917,-0.183,-0.1816,-0.1826,-0.177,-0.1776,-0.1717,-0.1721,-0.1626,-0.1615,-0.1581,-0.156,-0.151,-0.1544,-0.1381,-0.1341,-0.1478,-0.1476,-0.1474,0,-0.2101,-0.2066,-0.1991,-0.1917,-0.1892,-0.1809,-0.1751,-0.1781,-0.1746,-0.1734,-0.168,-0.1635,-0.1596,-0.1496,-0.1498,-0.1445,-0.1481,-0.1361,-0.1457,-0.1462,-0.1485,-0.1512,-0.1494,-0.1351,-0.1348,-0.1346,-0.1344,0,-0.1856,-0.1853,-0.1774,-0.167,-0.1594,-0.1512,-0.1476,-0.1447,-0.1512,-0.148,-0.1473,-0.1465,-0.1402,-0.1365,-0.13,-0.1278,-0.1348,-0.1311,-0.1324,-0.1366,-0.1378,-0.1345,-0.1502,-0.1324,-0.1326,-0.1327,-0.1328,-0.1329,-0.1635,-0.1504,-0.1455,-0.1357,-0.1295,-0.127,-0.1213,-0.1256,-0.1234,-0.125,-0.1287,-0.1262,-0.1281,-0.1214,-0.118,-0.1127,-0.1172,-0.1136,-0.1166,-0.1185,-0.1178,-0.1273,-0.1084,-0.1085,-0.1085,-0.1086,-0.1086,0,-0.1332,-0.1264,-0.1152,-0.1064,-0.1016,-0.106,-0.106,-0.1065,-0.1087,-0.1079,-0.1095,-0.11,-0.107,-0.1081,-0.1062,-0.1023,-0.1017,-0.0999,-0.1047,-0.1029,-0.1104,-0.1135,-0.0939,-0.0939,-0.0939,-0.0939,-0.0939,-0.0939,-0.1141,-0.0984,-0.0984,-0.0861,-0.0842,-0.0801,-0.0821,-0.0871,-0.0885,-0.0878,-0.0872,-0.0861,-0.0949,-0.1081,-0.105,-0.0997,-0.0989,-0.0941,-0.095,-0.1054,-0.1071,-0.1087,-0.1123,-0.0928,-0.0928,-0.0853,-0.0852,-0.0852]},{"header":{"parameterUnit":"m.s-1","parameterCategory":2,"la1":30.2991,"la2":30.254,"lo1":-89.0895,"lo2":-89.0444,"dy":0.0017,"dx":0.0017,"nx":28,"ny":28,"refTime":"2023-10-23T21:00:00:Z","depth":"0","parameterNumber":3,"parameterNumberName":"V-component_of_CURRENTS"},"data":[0,0,0,0,0,0,0,0,0,0,0,0,0,0,0,0,0,0,0,0,0,0,0,0,0,0,0,0,0,0,0,0,0,0,0,0,0,0,0,0,0,0,0,0,0,0,0,0,0,0,0,0,0,0,0,0,0,0,0.0594,0.0595,0,0.0707,0.0709,0.071,0.0772,0.0773,0.0773,0.0773,0.0886,0.0889,0.0892,0,0,0,0,0,0,0,0,0,0,0,0,0,0.0476,0.0477,0.0593,0.0595,0.0596,0.0707,0.0709,0.071,0.0772,0.0773,0.0773,0.0773,0.0886,0.0889,0.0892,0,0,0,0,0,0,0,0,0,0,0,0,0,0.0551,0.0478,0.0593,0.0641,0.0647,0.0707,0.0709,0.0711,0.0772,0.0773,0.0773,0.0773,0.0884,0.0889,0.0893,0.0913,0,0,0.0906,0.0908,0,0,0,0,0,0,0,0,0.0547,0.0555,0.0633,0.0638,0.0644,0.0726,0.0709,0.0778,0.0772,0.0724,0.0773,0.0773,0.0833,0.0841,0.0862,0.0918,0.0923,0.0906,0.0909,0.0911,0.0912,0,0,0,0,0,0,0,0.0541,0.0551,0.0638,0.0634,0.0641,0.0673,0.0683,0.0723,0.0775,0.0728,0.0733,0.0746,0.0836,0.0857,0.0865,0.0925,0.0906,0.091,0.0912,0.0914,0.1012,0.1012,0,0,0,0,0,0,0.0526,0.0546,0.0635,0.0642,0.0596,0.0674,0.0686,0.0699,0.0775,0.0787,0.0746,0.0749,0.085,0.086,0.0869,0.0887,0.091,0.0914,0.0917,0.1012,0.1012,0.1012,0,0,0,0,0,0,0.0523,0.0533,0.063,0.0597,0.0611,0.0676,0.069,0.0701,0.0725,0.0788,0.08,0.0758,0.0851,0.0863,0.0901,0.0892,0.0916,0.092,0.1012,0.1012,0.1012,0.093,0,0,0,0,0,0,0.0519,0.0531,0.0528,0.0596,0.0613,0.066,0.069,0.0703,0.0733,0.0738,0.0803,0.0814,0.0852,0.0895,0.0906,0.0899,0.0924,0.1012,0.1012,0.1012,0.0933,0.0928,0.0923,0,0,0,0,0,0.0514,0.0507,0.0527,0.0538,0.0609,0.066,0.0671,0.0718,0.0733,0.0741,0.0783,0.0812,0.0903,0.0898,0.0911,0.0905,0.1012,0.1012,0.1012,0.0935,0.0929,0.0923,0,0,0,0,0,0,0.0444,0.0515,0.0538,0.055,0.06,0.0671,0.0677,0.0714,0.0755,0.0755,0.0814,0.0828,0.0862,0.0896,0.0889,0.0935,0.0962,0.0965,0.0899,0.0894,0.0889,0.0857,0.0927,0,0,0,0,0,0.0429,0.0444,0.0518,0.0521,0.0546,0.0611,0.0634,0.0671,0.0719,0.0738,0.0784,0.083,0.0873,0.0891,0.0936,0.0958,0.0988,0.0963,0.0958,0.0954,0.0938,0.0969,0.0964,0.1013,0.1013,0.1013,0,0,0.0398,0.044,0.0444,0.0508,0.0546,0.0573,0.0625,0.0658,0.0673,0.0743,0.0767,0.0819,0.0877,0.0905,0.0922,0.0929,0.096,0.0954,0.0949,0.0936,0.0968,0.0963,0.0959,0.1013,0.1013,0.1013,0,0,0.0349,0.0384,0.0387,0.0428,0.0491,0.0534,0.0542,0.0615,0.0641,0.0679,0.0731,0.077,0.0837,0.0871,0.0898,0.0892,0.0938,0.0912,0.0854,0.0883,0.0879,0.0875,0.092,0.0921,0.0902,0.0902,0.0902,0,0.0304,0.033,0.0392,0.0412,0.0433,0.0512,0.052,0.0559,0.0632,0.0645,0.0674,0.0766,0.0817,0.0844,0.0843,0.0878,0.0908,0.0868,0.0874,0.0871,0.0869,0.0915,0.0917,0.0898,0.0898,0.0899,0.0899,0,0.0274,0.0294,0.0296,0.0346,0.0374,0.0394,0.046,0.0486,0.0528,0.0572,0.0615,0.0687,0.0737,0.0763,0.0802,0.0812,0.0845,0.0868,0.0881,0.0859,0.091,0.0914,0.0892,0.0894,0.0895,0.0896,0,0,0.0167,0.0258,0.0257,0.0287,0.0344,0.0376,0.038,0.0423,0.0438,0.0498,0.0518,0.0585,0.0628,0.0661,0.0718,0.0742,0.0763,0.0788,0.0791,0.0818,0.0838,0.0771,0.0769,0.0784,0.0784,0.0784,0.0884,0,0.0121,0.0165,0.0202,0.0221,0.0254,0.0304,0.0307,0.0351,0.0397,0.0437,0.0499,0.0555,0.0588,0.0628,0.0644,0.0754,0.0767,0.0734,0.0868,0.0872,0.0803,0.0768,0.0758,0.0837,0.0888,0.0889,0.0889,0,0.0073,0.0121,0.0154,0.0202,0.0213,0.0231,0.0264,0.0281,0.0333,0.0363,0.04,0.047,0.0526,0.0563,0.0672,0.0652,0.072,0.0791,0.0797,0.0758,0.0809,0.0868,0.0843,0.0935,0.0895,0.0895,0.0894,0,0.0026,0.007,0.011,0.0132,0.0202,0.021,0.0231,0.0268,0.0305,0.0339,0.0374,0.0423,0.0501,0.0563,0.0688,0.069,0.0811,0.0842,0.0837,0.0836,0.0864,0.0862,0.0925,0.0885,0.0885,0.0885,0.0885,0,-0.0016,0.0008,0.0109,0.0148,0.0196,0.0205,0.0248,0.0264,0.0295,0.0347,0.0354,0.0399,0.0505,0.059,0.0672,0.0756,0.0795,0.081,0.0842,0.0836,0.0831,0.0941,0.0986,0.0889,0.0888,0.0887,0.0886,0,-0.0025,0.0013,0.0104,0.0187,0.0207,0.0265,0.0321,0.0346,0.0334,0.0403,0.042,0.0436,0.0504,0.0594,0.0727,0.0755,0.0875,0.0855,0.0839,0.0862,0.0899,0.0939,0.1005,0.1046,0.086,0.0859,0.0858,0,-0.0021,0.0045,0.0195,0.0259,0.0317,0.0382,0.0419,0.0409,0.0436,0.043,0.0467,0.0504,0.0512,0.0623,0.0691,0.0778,0.0861,0.0819,0.0792,0.0872,0.0944,0.0974,0.1007,0.083,0.0829,0.0828,0.0827,0,0.0076,0.0165,0.028,0.0389,0.0465,0.0521,0.056,0.0582,0.0554,0.0564,0.0547,0.0527,0.0552,0.059,0.0649,0.0702,0.0854,0.0795,0.0901,0.0915,0.0935,0.0999,0.0813,0.0818,0.0819,0.082,0.082,0.0821,0.0217,0.0327,0.0475,0.0569,0.0618,0.0628,0.065,0.0659,0.0673,0.0636,0.0625,0.0571,0.0557,0.059,0.0661,0.0784,0.0788,0.0832,0.0879,0.0907,0.0908,0.0673,0.0682,0.0682,0.0682,0.0683,0.0683,0,0.0419,0.0513,0.0609,0.0704,0.0709,0.0701,0.0712,0.0692,0.0686,0.0663,0.0631,0.0614,0.0642,0.0687,0.0815,0.0893,0.0942,0.0946,0.1035,0.1069,0.0897,0.0855,0.0872,0.0872,0.0872,0.0872,0.0872,0.0872,0.0549,0.0706,0.0715,0.0757,0.0762,0.0742,0.0726,0.0699,0.0665,0.063,0.0611,0.0574,0.065,0.0908,0.108,0.1088,0.1216,0.1165,0.1246,0.1178,0.1174,0.1169,0.1142,0.1219,0.1219,0.1418,0.142,0.1422]}],[{"header":{"parameterUnit":"m.s-1","parameterCategory":2,"la1":30.2991,"la2":30.254,"lo1":-89.0895,"lo2":-89.0444,"dy":0.0017,"dx":0.0017,"nx":28,"ny":28,"refTime":"2023-10-23T21:00:00:Z","depth":"2","parameterNumber":2,"parameterNumberName":"U-component_of_CURRENTS"},"data":[0,0,0,0,0,0,0,0,0,0,0,0,0,0,0,0,0,0,0,0,0,0,0,0,0,0,0,0,0,0,0,0,0,0,0,0,0,0,0,0,0,0,0,0,0,0,0,0,0,0,0,0,0,0,0,0,0,0,-0.1639,-0.1639,0,-0.1632,-0.1632,-0.1631,-0.1607,-0.1607,-0.1607,-0.1607,-0.1538,-0.1536,-0.1535,0,0,0,0,0,0,0,0,0,0,0,0,0,-0.1597,-0.1598,-0.1639,-0.1639,-0.164,-0.1632,-0.1632,-0.1631,-0.1607,-0.1607,-0.1607,-0.1606,-0.1538,-0.1537,-0.1535,0,0,0,0,0,0,0,0,0,0,0,0,0,-0.1602,-0.1598,-0.1639,-0.1629,-0.1628,-0.1632,-0.1632,-0.1631,-0.1607,-0.1607,-0.1607,-0.1606,-0.1539,-0.1537,-0.1534,-0.1527,0,0,-0.1527,-0.1526,0,0,0,0,0,0,0,0,-0.1602,-0.1603,-0.163,-0.163,-0.1629,-0.1623,-0.1592,-0.1594,-0.1608,-0.1612,-0.1607,-0.1606,-0.1563,-0.1559,-0.1554,-0.1524,-0.1521,-0.1527,-0.1525,-0.1524,-0.1524,0,0,0,0,0,0,0,-0.1602,-0.1603,-0.1633,-0.1631,-0.163,-0.1613,-0.1613,-0.1592,-0.1586,-0.1612,-0.1611,-0.1615,-0.1562,-0.1557,-0.1553,-0.152,-0.1527,-0.1525,-0.1523,-0.1522,-0.1418,-0.1416,0,0,0,0,0,0,-0.1611,-0.1604,-0.1634,-0.1633,-0.1618,-0.1615,-0.1615,-0.1623,-0.1588,-0.1583,-0.1615,-0.1614,-0.1561,-0.1555,-0.155,-0.1525,-0.1524,-0.1522,-0.1521,-0.1419,-0.1417,-0.1416,0,0,0,0,0,0,-0.1611,-0.1614,-0.1634,-0.162,-0.1622,-0.1616,-0.1625,-0.1623,-0.1626,-0.1592,-0.1585,-0.1623,-0.1561,-0.1553,-0.1528,-0.1522,-0.1521,-0.1519,-0.142,-0.1418,-0.1416,-0.1483,0,0,0,0,0,0,-0.1609,-0.1614,-0.1626,-0.1621,-0.1623,-0.1635,-0.1626,-0.1623,-0.1631,-0.1629,-0.1596,-0.1589,-0.156,-0.1531,-0.1525,-0.1519,-0.1517,-0.1422,-0.142,-0.1417,-0.1482,-0.1483,-0.1484,0,0,0,0,0,-0.1608,-0.163,-0.1627,-0.1631,-0.1639,-0.1635,-0.1634,-0.1626,-0.1632,-0.1629,-0.1606,-0.159,-0.151,-0.1529,-0.1522,-0.1515,-0.1423,-0.142,-0.1417,-0.1482,-0.1483,-0.1484,0,0,0,0,0,0,-0.1618,-0.1629,-0.1626,-0.165,-0.1641,-0.1632,-0.164,-0.1636,-0.1619,-0.162,-0.1588,-0.1578,-0.1539,-0.1518,-0.154,-0.147,-0.1458,-0.1453,-0.1509,-0.151,-0.1511,-0.1545,-0.1515,0,0,0,0,0,-0.1627,-0.1659,-0.1642,-0.1671,-0.166,-0.1653,-0.1655,-0.1647,-0.1633,-0.1626,-0.1603,-0.1567,-0.152,-0.1512,-0.1463,-0.145,-0.1424,-0.1431,-0.1433,-0.1434,-0.1452,-0.1455,-0.1459,-0.1406,-0.1406,-0.1406,0,0,-0.1645,-0.1659,-0.1676,-0.1677,-0.1672,-0.1653,-0.1652,-0.1658,-0.1655,-0.1621,-0.1612,-0.1566,-0.1511,-0.1476,-0.1459,-0.1466,-0.1415,-0.143,-0.1432,-0.145,-0.1452,-0.1458,-0.1463,-0.1404,-0.1404,-0.1404,0,0,-0.1689,-0.1698,-0.1721,-0.17,-0.1694,-0.168,-0.1683,-0.1666,-0.1668,-0.1667,-0.1611,-0.1579,-0.1541,-0.1489,-0.1461,-0.1443,-0.1408,-0.1411,-0.1468,-0.1469,-0.1476,-0.1481,-0.1381,-0.1377,-0.143,-0.143,-0.143,0,-0.1704,-0.1736,-0.1726,-0.1715,-0.1715,-0.1689,-0.1689,-0.1674,-0.1657,-0.167,-0.1673,-0.1608,-0.1552,-0.1506,-0.1482,-0.145,-0.1417,-0.1477,-0.1477,-0.1482,-0.1486,-0.1384,-0.1379,-0.1432,-0.1432,-0.1432,-0.1432,0,-0.1736,-0.1753,-0.1763,-0.1747,-0.1731,-0.1739,-0.17,-0.1704,-0.1722,-0.1711,-0.1702,-0.1646,-0.1611,-0.1573,-0.1526,-0.1503,-0.1451,-0.1471,-0.1491,-0.1497,-0.1385,-0.1379,-0.1437,-0.1436,-0.1435,-0.1434,0,0,-0.1755,-0.1793,-0.1777,-0.1784,-0.1757,-0.1737,-0.1747,-0.1748,-0.1742,-0.1758,-0.177,-0.1708,-0.1687,-0.1651,-0.1581,-0.1584,-0.154,-0.1548,-0.1547,-0.1475,-0.1476,-0.1449,-0.1438,-0.1582,-0.1583,-0.1584,-0.1361,0,-0.178,-0.1804,-0.181,-0.1804,-0.1803,-0.1793,-0.1785,-0.1771,-0.178,-0.1763,-0.1762,-0.1709,-0.1709,-0.1667,-0.1685,-0.1553,-0.1538,-0.1593,-0.1458,-0.1451,-0.1453,-0.1438,-0.1383,-0.1185,-0.1354,-0.1353,-0.1352,0,-0.1743,-0.1796,-0.1824,-0.1845,-0.1836,-0.1811,-0.1803,-0.1797,-0.1774,-0.1785,-0.18,-0.1756,-0.1706,-0.1721,-0.1624,-0.1663,-0.1581,-0.1518,-0.1509,-0.1472,-0.1418,-0.1216,-0.1167,-0.1342,-0.1342,-0.1343,-0.1344,0,-0.1698,-0.1755,-0.1805,-0.1803,-0.1828,-0.1837,-0.1828,-0.1801,-0.177,-0.1765,-0.1728,-0.1737,-0.1654,-0.1658,-0.1534,-0.1573,-0.1422,-0.1453,-0.1353,-0.1344,-0.1265,-0.1251,-0.1419,-0.1419,-0.1419,-0.142,-0.1421,0,-0.1671,-0.1689,-0.1785,-0.1785,-0.1787,-0.1808,-0.1761,-0.1765,-0.1734,-0.1675,-0.1705,-0.1647,-0.1644,-0.1558,-0.152,-0.1399,-0.1414,-0.1353,-0.1312,-0.1274,-0.1264,-0.1398,-0.1399,-0.1411,-0.1413,-0.1415,-0.1416,0,-0.1561,-0.1652,-0.1669,-0.1739,-0.1747,-0.1711,-0.1661,-0.1632,-0.1624,-0.155,-0.1536,-0.1507,-0.1432,-0.1399,-0.1309,-0.1304,-0.1233,-0.1185,-0.109,-0.1048,-0.1144,-0.115,-0.1058,-0.1056,-0.1054,-0.1053,-0.1051,0,-0.15,-0.1532,-0.157,-0.1565,-0.159,-0.1564,-0.1539,-0.1548,-0.1522,-0.1465,-0.1429,-0.1334,-0.1281,-0.1134,-0.1121,-0.1046,-0.1107,-0.0937,-0.1047,-0.1151,-0.1119,-0.1128,-0.1136,-0.0901,-0.0899,-0.0897,-0.0895,0,-0.1399,-0.1415,-0.1433,-0.1428,-0.1412,-0.1393,-0.1378,-0.1338,-0.1368,-0.1313,-0.1268,-0.1222,-0.1104,-0.1027,-0.0931,-0.0899,-0.0973,-0.0896,-0.1021,-0.1041,-0.0997,-0.0969,-0.0983,-0.0877,-0.0879,-0.088,-0.0881,-0.0882,-0.1265,-0.1248,-0.1276,-0.1257,-0.1266,-0.1264,-0.117,-0.1196,-0.1146,-0.1072,-0.1133,-0.1032,-0.1004,-0.0851,-0.0801,-0.0761,-0.0833,-0.0818,-0.0826,-0.0835,-0.0898,-0.0859,-0.0715,-0.0716,-0.0717,-0.0718,-0.0718,0,-0.1065,-0.1124,-0.1113,-0.1096,-0.1054,-0.1121,-0.1089,-0.0999,-0.0914,-0.0931,-0.0882,-0.081,-0.0758,-0.0725,-0.0654,-0.0646,-0.0655,-0.0617,-0.0646,-0.0664,-0.0679,-0.0737,-0.0509,-0.0509,-0.0508,-0.0508,0,0,-0.0979,-0.0917,-0.0948,-0.0888,-0.0904,-0.0818,-0.0769,-0.0701,-0.0663,-0.0599,-0.0574,-0.0648,-0.0687,-0.0594,-0.0582,-0.0532,-0.0581,-0.0499,-0.0666,-0.0715,-0.0729,-0.0794,-0.0903,0,0,0,0,0]},{"header":{"parameterUnit":"m.s-1","parameterCategory":2,"la1":30.2991,"la2":30.254,"lo1":-89.0895,"lo2":-89.0444,"dy":0.0017,"dx":0.0017,"nx":28,"ny":28,"refTime":"2023-10-23T21:00:00:Z","depth":"2","parameterNumber":3,"parameterNumberName":"V-component_of_CURRENTS"},"data":[0,0,0,0,0,0,0,0,0,0,0,0,0,0,0,0,0,0,0,0,0,0,0,0,0,0,0,0,0,0,0,0,0,0,0,0,0,0,0,0,0,0,0,0,0,0,0,0,0,0,0,0,0,0,0,0,0,0,-0.0508,-0.0508,0,-0.0423,-0.0422,-0.0421,-0.0399,-0.04,-0.0401,-0.0402,-0.0291,-0.0287,-0.0284,0,0,0,0,0,0,0,0,0,0,0,0,0,-0.0603,-0.0601,-0.0508,-0.0508,-0.0507,-0.0423,-0.0422,-0.042,-0.0399,-0.04,-0.0401,-0.0402,-0.0292,-0.0288,-0.0283,0,0,0,0,0,0,0,0,0,0,0,0,0,-0.0542,-0.0601,-0.0509,-0.0488,-0.0485,-0.0423,-0.0422,-0.042,-0.0399,-0.04,-0.0401,-0.0402,-0.0293,-0.0288,-0.0283,-0.0226,0,0,-0.0266,-0.0263,0,0,0,0,0,0,0,0,-0.0545,-0.0538,-0.0492,-0.0489,-0.0486,-0.0425,-0.0414,-0.0355,-0.0399,-0.0429,-0.0402,-0.0403,-0.0334,-0.0325,-0.0304,-0.0221,-0.0216,-0.0265,-0.0262,-0.026,-0.0258,0,0,0,0,0,0,0,-0.055,-0.0541,-0.0472,-0.0491,-0.0487,-0.0466,-0.0458,-0.0403,-0.0374,-0.0427,-0.0426,-0.0419,-0.0332,-0.0309,-0.0301,-0.0214,-0.0265,-0.0261,-0.0257,-0.0255,-0.003,-0.0027,0,0,0,0,0,0,-0.0566,-0.0545,-0.0475,-0.047,-0.0522,-0.0463,-0.0455,-0.0442,-0.0375,-0.0367,-0.0419,-0.0419,-0.0318,-0.0307,-0.0297,-0.018,-0.026,-0.0255,-0.0251,-0.0032,-0.0029,-0.0026,0,0,0,0,0,0,-0.0568,-0.056,-0.0478,-0.0508,-0.0497,-0.0461,-0.0446,-0.0439,-0.0405,-0.037,-0.0361,-0.039,-0.0318,-0.0305,-0.0219,-0.0178,-0.0252,-0.0247,-0.0035,-0.0031,-0.0028,0.0024,0,0,0,0,0,0,-0.0571,-0.0561,-0.0543,-0.0509,-0.0496,-0.0425,-0.0445,-0.0437,-0.0402,-0.0401,-0.0342,-0.0334,-0.0318,-0.0227,-0.0214,-0.0172,-0.0243,-0.0039,-0.0034,-0.0029,0.0019,0.003,0.0039,0,0,0,0,0,-0.0575,-0.0535,-0.0542,-0.0533,-0.0476,-0.0424,-0.0413,-0.0391,-0.0399,-0.0368,-0.0324,-0.0335,-0.0186,-0.022,-0.0205,-0.016,-0.0041,-0.0035,-0.0029,0.0015,0.0028,0.0038,0,0,0,0,0,0,-0.0554,-0.0529,-0.0536,-0.0489,-0.0458,-0.0421,-0.0383,-0.0379,-0.032,-0.0314,-0.0291,-0.0277,-0.0192,-0.0174,-0.0212,-0.0079,-0.0119,-0.0109,-0.009,-0.0078,-0.0068,-0.0077,-0.0238,0,0,0,0,0,-0.0547,-0.0509,-0.0493,-0.0447,-0.0437,-0.0411,-0.0384,-0.0372,-0.0325,-0.0302,-0.0256,-0.0206,-0.0154,-0.0116,-0.0066,0.0018,0.0019,0.0055,0.0064,0.0072,0.0078,0.0129,0.0143,-0.0006,-0.0006,-0.0006,0,0,-0.0525,-0.0502,-0.0482,-0.044,-0.0415,-0.0382,-0.0395,-0.0345,-0.0301,-0.0296,-0.0199,-0.0166,-0.0124,-0.0037,0.0003,-0.0016,0.0115,0.008,0.0086,0.0087,0.0137,0.0151,0.0164,-0.0002,-0.0003,-0.0004,0,0,-0.0453,-0.0446,-0.0396,-0.0383,-0.0347,-0.0333,-0.032,-0.0273,-0.0236,-0.0137,-0.014,-0.0071,0.0031,0.0059,0.0086,0.0187,0.0161,0.0193,0.0243,0.0293,0.0305,0.0316,0.0323,0.0334,0.0202,0.0202,0.0202,0,-0.0432,-0.0378,-0.037,-0.0333,-0.0315,-0.0315,-0.0272,-0.0231,-0.0153,-0.0113,-0.0091,0.0045,0.0085,0.0155,0.0188,0.021,0.0209,0.0189,0.0303,0.0314,0.0324,0.0329,0.034,0.0205,0.0205,0.0205,0.0204,0,-0.0349,-0.0308,-0.0276,-0.024,-0.0212,-0.0173,-0.0147,-0.0094,-0.0044,-0.0006,0.0103,0.0168,0.0233,0.0264,0.0266,0.0341,0.0307,0.0302,0.0265,0.0342,0.0342,0.0353,0.021,0.0209,0.0208,0.0207,0,0,-0.0329,-0.0234,-0.0238,-0.0208,-0.0171,-0.0147,-0.0067,-0.0005,0.0026,0.014,0.0207,0.0325,0.0327,0.0356,0.0356,0.0415,0.0489,0.0388,0.0389,0.0379,0.0563,0.0485,0.0489,0.0493,0.0495,0.0498,0.0529,0,-0.0278,-0.0192,-0.0157,-0.0091,-0.0055,-0.0036,0.0022,0.0075,0.0137,0.0201,0.0282,0.0342,0.0365,0.0382,0.0449,0.0465,0.0522,0.0478,0.0505,0.0505,0.0414,0.0502,0.048,0.0502,0.054,0.0541,0.0543,0,-0.0259,-0.0189,-0.0113,-0.003,-0.0019,0.0015,0.0068,0.0125,0.0197,0.0251,0.0325,0.0353,0.0437,0.045,0.0555,0.0516,0.055,0.0582,0.0583,0.05,0.0449,0.0437,0.052,0.056,0.0559,0.0557,0.0556,0,-0.0314,-0.0188,-0.0123,-0.0105,-0.0007,0.0035,0.0078,0.0138,0.0177,0.0253,0.0289,0.0379,0.0423,0.0504,0.0554,0.0558,0.0651,0.0665,0.0634,0.0626,0.0609,0.0596,0.0763,0.0763,0.0763,0.0763,0.0763,0,-0.0333,-0.028,-0.0141,-0.0133,-0.0076,0.001,0.0044,0.0093,0.0172,0.0195,0.0286,0.0316,0.0443,0.0495,0.0553,0.0605,0.0653,0.0656,0.0645,0.0624,0.0613,0.0663,0.0651,0.0764,0.0764,0.0764,0.0764,0,-0.0431,-0.0332,-0.0277,-0.0156,-0.0117,-0.0102,-0.001,0.001,0.0109,0.0144,0.017,0.0281,0.0356,0.0446,0.0556,0.059,0.0651,0.0654,0.0591,0.0573,0.0596,0.0587,0.0658,0.0656,0.0654,0.0653,0.0651,0,-0.0469,-0.0431,-0.036,-0.0342,-0.0289,-0.0224,-0.0197,-0.007,-0.0044,0.0104,0.0104,0.0215,0.0247,0.0368,0.0466,0.0551,0.0591,0.0564,0.0597,0.0611,0.0594,0.0587,0.0581,0.0596,0.0594,0.0593,0.0592,0,-0.0538,-0.053,-0.0515,-0.0482,-0.045,-0.0406,-0.0333,-0.0321,-0.0175,-0.0132,-0.0058,0.0,0.0171,0.0267,0.0385,0.0435,0.0552,0.0537,0.0602,0.0605,0.0551,0.0533,0.053,0.058,0.0582,0.0582,0.0583,0.0583,-0.0628,-0.066,-0.0648,-0.0618,-0.0588,-0.0566,-0.0554,-0.0493,-0.0466,-0.0361,-0.0252,-0.0145,0.008,0.0225,0.0335,0.0443,0.0466,0.0505,0.0512,0.0519,0.0486,0.0429,0.0428,0.0428,0.0429,0.0429,0.0429,0,-0.0715,-0.0731,-0.0742,-0.0729,-0.072,-0.066,-0.062,-0.0591,-0.06,-0.0507,-0.0425,-0.0226,-0.0071,0.0157,0.0318,0.0418,0.0452,0.0431,0.0483,0.0492,0.0501,0.047,0.0407,0.0407,0.0407,0.0408,0,0,-0.075,-0.08,-0.0799,-0.0811,-0.0795,-0.0768,-0.0753,-0.0739,-0.066,-0.0621,-0.0529,-0.0343,-0.0052,0.0066,0.0233,0.0322,0.0372,0.0318,0.0322,0.0373,0.0381,0.0525,0.0484,0,0,0,0,0]}],[{"header":{"parameterUnit":"m.s-1","parameterCategory":2,"la1":30.2991,"la2":30.254,"lo1":-89.0895,"lo2":-89.0444,"dy":0.0017,"dx":0.0017,"nx":28,"ny":28,"refTime":"2023-10-23T21:00:00:Z","depth":"4","parameterNumber":2,"parameterNumberName":"U-component_of_CURRENTS"},"data":[0,0,0,0,0,0,0,0,0,0,0,0,0,0,0,0,0,0,0,0,0,0,0,0,0,0,0,0,0,0,0,0,0,0,0,0,0,0,0,0,0,0,0,0,0,0,0,0,0,0,0,0,0,0,0,0,0,0,-0.0437,-0.0437,0,-0.0487,-0.0488,-0.0488,-0.0533,-0.0533,-0.0533,-0.0534,-0.0604,-0.0606,-0.0607,0,0,0,0,0,0,0,0,0,0,0,0,0,-0.0438,-0.0438,-0.0437,-0.0437,-0.0438,-0.0487,-0.0488,-0.0489,-0.0533,-0.0533,-0.0534,-0.0534,-0.0604,-0.0605,-0.0607,0,0,0,0,0,0,0,0,0,0,0,0,0,-0.046,-0.0438,-0.0437,-0.0464,-0.0467,-0.0487,-0.0488,-0.0489,-0.0533,-0.0533,-0.0534,-0.0534,-0.0603,-0.0605,-0.0608,-0.0613,0,0,-0.0615,-0.0616,0,0,0,0,0,0,0,0,-0.0459,-0.046,-0.046,-0.0462,-0.0465,-0.0502,-0.0514,-0.053,-0.0533,-0.051,-0.0534,-0.0534,-0.057,-0.0575,-0.0586,-0.0616,-0.0619,-0.0615,-0.0616,-0.0617,-0.0618,0,0,0,0,0,0,0,-0.0457,-0.0458,-0.0459,-0.046,-0.0463,-0.0494,-0.0497,-0.0518,-0.0539,-0.0512,-0.0515,-0.0517,-0.0572,-0.0584,-0.0588,-0.062,-0.0615,-0.0617,-0.0619,-0.0619,-0.0751,-0.0753,0,0,0,0,0,0,-0.0443,-0.0457,-0.0457,-0.046,-0.0461,-0.0493,-0.0497,-0.0492,-0.0538,-0.0545,-0.0516,-0.0519,-0.058,-0.0586,-0.0591,-0.0655,-0.0617,-0.062,-0.0621,-0.0749,-0.0752,-0.0754,0,0,0,0,0,0,-0.0442,-0.0442,-0.0455,-0.0458,-0.0462,-0.0492,-0.0486,-0.0492,-0.0517,-0.0541,-0.0549,-0.0536,-0.058,-0.0588,-0.0625,-0.0656,-0.0621,-0.0623,-0.0747,-0.075,-0.0753,-0.0748,0,0,0,0,0,0,-0.0442,-0.0441,-0.0437,-0.0457,-0.0461,-0.0461,-0.0486,-0.0493,-0.0516,-0.052,-0.056,-0.0566,-0.0581,-0.0622,-0.0628,-0.0659,-0.0625,-0.0744,-0.0748,-0.0752,-0.0746,-0.0751,-0.0755,0,0,0,0,0,-0.0442,-0.0434,-0.0437,-0.0437,-0.0453,-0.046,-0.0466,-0.0491,-0.0516,-0.0518,-0.056,-0.0566,-0.0652,-0.0624,-0.0631,-0.0664,-0.0742,-0.0747,-0.0752,-0.0744,-0.075,-0.0755,0,0,0,0,0,0,-0.0438,-0.0438,-0.0442,-0.0435,-0.0443,-0.0467,-0.0477,-0.0497,-0.0532,-0.0541,-0.0577,-0.0586,-0.0628,-0.0653,-0.0622,-0.0719,-0.0704,-0.0711,-0.0696,-0.0702,-0.0707,-0.069,-0.0627,0,0,0,0,0,-0.0431,-0.0426,-0.043,-0.0428,-0.0431,-0.0457,-0.0468,-0.0478,-0.0508,-0.0525,-0.0561,-0.061,-0.0651,-0.0681,-0.0706,-0.0755,-0.0741,-0.0789,-0.0794,-0.0797,-0.0792,-0.0818,-0.0823,-0.0769,-0.0769,-0.0769,0,0,-0.043,-0.0431,-0.0429,-0.0427,-0.0441,-0.0452,-0.0466,-0.0475,-0.0496,-0.0526,-0.0578,-0.0611,-0.0664,-0.0714,-0.0739,-0.0742,-0.0798,-0.0803,-0.0805,-0.0798,-0.0823,-0.0828,-0.0832,-0.0772,-0.0772,-0.0771,0,0,-0.0428,-0.0426,-0.0421,-0.0428,-0.0434,-0.0448,-0.0452,-0.0477,-0.0499,-0.0542,-0.0577,-0.0627,-0.0698,-0.0739,-0.0772,-0.0822,-0.0808,-0.0849,-0.0872,-0.0898,-0.0901,-0.0904,-0.0847,-0.0845,-0.0868,-0.0868,-0.0868,0,-0.0425,-0.0423,-0.0422,-0.0427,-0.044,-0.0451,-0.046,-0.0481,-0.0519,-0.0544,-0.0558,-0.0673,-0.0711,-0.0782,-0.0812,-0.083,-0.0817,-0.0839,-0.0899,-0.0903,-0.0906,-0.0847,-0.0845,-0.0869,-0.0868,-0.0868,-0.0868,0,-0.0422,-0.0427,-0.043,-0.044,-0.0451,-0.0457,-0.0478,-0.0501,-0.0539,-0.0567,-0.0631,-0.0683,-0.076,-0.0789,-0.0822,-0.0881,-0.085,-0.0883,-0.0872,-0.091,-0.0846,-0.0844,-0.0869,-0.0869,-0.0869,-0.0869,0,0,-0.0404,-0.042,-0.0424,-0.0438,-0.0458,-0.0468,-0.0502,-0.0534,-0.0564,-0.0612,-0.0656,-0.075,-0.0779,-0.082,-0.0863,-0.0897,-0.09,-0.0911,-0.0912,-0.0829,-0.0897,-0.0866,-0.0859,-0.095,-0.0951,-0.0951,-0.0825,0,-0.0404,-0.0418,-0.0423,-0.0454,-0.0472,-0.0493,-0.0524,-0.0556,-0.0593,-0.0633,-0.0689,-0.0749,-0.0792,-0.0836,-0.0875,-0.0891,-0.0903,-0.0927,-0.0895,-0.0892,-0.0842,-0.0861,-0.0954,-0.0823,-0.0822,-0.0822,-0.0822,0,-0.0409,-0.0419,-0.0441,-0.0475,-0.0481,-0.0503,-0.0555,-0.0573,-0.0622,-0.0655,-0.0717,-0.0754,-0.0812,-0.0846,-0.0876,-0.0892,-0.09,-0.0902,-0.0898,-0.0872,-0.086,-0.0794,-0.0818,-0.0818,-0.0818,-0.0818,-0.0819,0,-0.0422,-0.044,-0.0461,-0.0473,-0.0504,-0.0528,-0.0547,-0.0593,-0.0608,-0.067,-0.0686,-0.0756,-0.0782,-0.082,-0.0846,-0.0869,-0.0841,-0.0871,-0.0831,-0.0824,-0.0887,-0.0886,-0.0892,-0.0892,-0.0892,-0.0893,-0.0893,0,-0.0433,-0.0454,-0.0473,-0.0487,-0.0511,-0.0536,-0.0563,-0.0595,-0.0625,-0.0642,-0.0699,-0.0724,-0.0787,-0.0788,-0.0815,-0.0797,-0.082,-0.0818,-0.0807,-0.0882,-0.0883,-0.0881,-0.0882,-0.0888,-0.0889,-0.089,-0.0891,0,-0.0442,-0.0462,-0.0481,-0.0507,-0.0521,-0.0537,-0.0559,-0.0571,-0.0605,-0.0622,-0.0645,-0.0687,-0.0699,-0.0714,-0.0743,-0.0742,-0.0742,-0.0737,-0.0747,-0.0741,-0.0698,-0.07,-0.0654,-0.0652,-0.0651,-0.0649,-0.0648,0,-0.0447,-0.0457,-0.0477,-0.0489,-0.0502,-0.0526,-0.0537,-0.0571,-0.0581,-0.0608,-0.061,-0.0627,-0.066,-0.0616,-0.0666,-0.0653,-0.0685,-0.064,-0.0737,-0.0687,-0.0682,-0.0686,-0.069,-0.0646,-0.0646,-0.0645,-0.0645,0,-0.0432,-0.0437,-0.0442,-0.0467,-0.0488,-0.0487,-0.051,-0.0514,-0.0547,-0.0573,-0.0588,-0.0602,-0.0586,-0.0606,-0.0588,-0.0605,-0.0648,-0.0625,-0.063,-0.072,-0.0677,-0.0674,-0.068,-0.064,-0.064,-0.0641,-0.0641,0,-0.0402,-0.0406,-0.0417,-0.0436,-0.0451,-0.0449,-0.0463,-0.0479,-0.0492,-0.0534,-0.0544,-0.0561,-0.0591,-0.0579,-0.0579,-0.0571,-0.0589,-0.059,-0.0596,-0.0602,-0.0655,-0.0597,-0.0517,0,0,0,0,0,-0.0369,-0.0379,-0.0388,-0.0404,-0.0409,-0.0418,-0.0441,-0.0455,-0.0493,-0.0497,-0.0524,-0.0531,-0.0537,-0.0547,-0.0532,-0.0552,-0.0578,-0.0532,-0.0579,-0.0611,-0.0617,-0.069,0,0,0,0,0,0,-0.0352,-0.0362,-0.0377,-0.0367,-0.0364,-0.0367,-0.0376,-0.0401,-0.0411,-0.0458,-0.0464,-0.0505,-0.0512,-0.0537,-0.0523,-0.0525,-0.0547,-0.0551,-0.055,-0.0607,-0.0613,-0.0618,-0.0695,0,0,0,0,0]},{"header":{"parameterUnit":"m.s-1","parameterCategory":2,"la1":30.2991,"la2":30.254,"lo1":-89.0895,"lo2":-89.0444,"dy":0.0017,"dx":0.0017,"nx":28,"ny":28,"refTime":"2023-10-23T21:00:00:Z","depth":"4","parameterNumber":3,"parameterNumberName":"V-component_of_CURRENTS"},"data":[0,0,0,0,0,0,0,0,0,0,0,0,0,0,0,0,0,0,0,0,0,0,0,0,0,0,0,0,0,0,0,0,0,0,0,0,0,0,0,0,0,0,0,0,0,0,0,0,0,0,0,0,0,0,0,0,0,0,-0.0516,-0.0516,0,-0.0539,-0.054,-0.054,-0.0539,-0.0538,-0.0538,-0.0537,-0.0532,-0.0532,-0.0532,0,0,0,0,0,0,0,0,0,0,0,0,0,-0.046,-0.0461,-0.0516,-0.0516,-0.0516,-0.0539,-0.054,-0.054,-0.0539,-0.0538,-0.0538,-0.0537,-0.0532,-0.0532,-0.0532,0,0,0,0,0,0,0,0,0,0,0,0,0,-0.0486,-0.0462,-0.0516,-0.0517,-0.0517,-0.0539,-0.054,-0.054,-0.0539,-0.0538,-0.0538,-0.0537,-0.0531,-0.0532,-0.0532,-0.0551,0,0,-0.0534,-0.0534,0,0,0,0,0,0,0,0,-0.0485,-0.0488,-0.0517,-0.0517,-0.0517,-0.0534,-0.0518,-0.0542,-0.0539,-0.0533,-0.0537,-0.0537,-0.0529,-0.053,-0.0539,-0.0551,-0.0551,-0.0534,-0.0534,-0.0535,-0.0535,0,0,0,0,0,0,0,-0.0483,-0.0487,-0.0527,-0.0517,-0.0517,-0.0512,-0.0515,-0.0523,-0.0536,-0.0534,-0.0533,-0.0532,-0.0529,-0.0539,-0.0539,-0.0551,-0.0534,-0.0534,-0.0535,-0.0535,-0.0599,-0.0601,0,0,0,0,0,0,-0.0477,-0.0486,-0.0527,-0.0528,-0.0496,-0.0514,-0.0517,-0.0531,-0.0537,-0.0537,-0.0533,-0.0532,-0.0538,-0.0538,-0.0539,-0.0564,-0.0535,-0.0535,-0.0535,-0.0598,-0.06,-0.0601,0,0,0,0,0,0,-0.0476,-0.0481,-0.0526,-0.0504,-0.0509,-0.0515,-0.0531,-0.0532,-0.0552,-0.0536,-0.0536,-0.0553,-0.0538,-0.0538,-0.0556,-0.0563,-0.0535,-0.0536,-0.0596,-0.0599,-0.06,-0.0612,0,0,0,0,0,0,-0.0475,-0.0481,-0.0497,-0.0505,-0.051,-0.0542,-0.0531,-0.0533,-0.0551,-0.0551,-0.0553,-0.0551,-0.0537,-0.0556,-0.0557,-0.0563,-0.0536,-0.0595,-0.0597,-0.06,-0.061,-0.0614,-0.0618,0,0,0,0,0,-0.0473,-0.0493,-0.0499,-0.0503,-0.053,-0.0543,-0.0546,-0.0548,-0.0553,-0.0564,-0.057,-0.0552,-0.0573,-0.0557,-0.0558,-0.0565,-0.0593,-0.0597,-0.06,-0.0608,-0.0613,-0.0618,0,0,0,0,0,0,-0.0483,-0.0495,-0.0501,-0.0526,-0.0536,-0.0541,-0.0557,-0.0561,-0.0577,-0.0581,-0.057,-0.0569,-0.0586,-0.0585,-0.0568,-0.0595,-0.0581,-0.0584,-0.0587,-0.0592,-0.0596,-0.0577,-0.0537,0,0,0,0,0,-0.0492,-0.0511,-0.0518,-0.0543,-0.0549,-0.056,-0.0569,-0.057,-0.058,-0.0587,-0.0593,-0.0599,-0.0601,-0.0603,-0.0608,-0.0626,-0.0606,-0.0634,-0.0638,-0.0641,-0.0629,-0.0619,-0.062,-0.0612,-0.0612,-0.0612,0,0,-0.0505,-0.0513,-0.0527,-0.0546,-0.0558,-0.0564,-0.0565,-0.0583,-0.0585,-0.0584,-0.0606,-0.0615,-0.0611,-0.0624,-0.0632,-0.0623,-0.0634,-0.0645,-0.0648,-0.0634,-0.0622,-0.0623,-0.0623,-0.0614,-0.0613,-0.0613,0,0,-0.0523,-0.0549,-0.0562,-0.057,-0.0582,-0.0584,-0.0592,-0.0609,-0.0615,-0.0637,-0.0633,-0.0649,-0.0667,-0.0657,-0.0653,-0.0688,-0.0657,-0.0699,-0.0698,-0.0689,-0.0689,-0.0688,-0.0658,-0.0655,-0.0699,-0.0699,-0.0699,0,-0.0536,-0.0555,-0.0569,-0.0576,-0.0581,-0.0593,-0.0599,-0.0608,-0.0628,-0.0636,-0.0646,-0.0674,-0.0675,-0.0671,-0.0681,-0.0693,-0.0678,-0.0675,-0.0691,-0.069,-0.0689,-0.0659,-0.0655,-0.07,-0.0699,-0.0699,-0.0699,0,-0.055,-0.0569,-0.0581,-0.0591,-0.0599,-0.0612,-0.0613,-0.0632,-0.065,-0.0655,-0.0677,-0.0686,-0.0698,-0.0707,-0.0701,-0.07,-0.0688,-0.0696,-0.067,-0.069,-0.0657,-0.0653,-0.0701,-0.0701,-0.07,-0.07,0,0,-0.0561,-0.0586,-0.059,-0.0601,-0.0607,-0.0618,-0.0623,-0.0631,-0.0643,-0.0667,-0.0678,-0.0691,-0.0705,-0.0703,-0.0706,-0.0697,-0.068,-0.0694,-0.0693,-0.0648,-0.0643,-0.0554,-0.0541,-0.0691,-0.0691,-0.0691,-0.0619,0,-0.0567,-0.059,-0.059,-0.061,-0.0625,-0.0629,-0.0633,-0.0642,-0.0656,-0.0673,-0.0677,-0.0697,-0.0698,-0.0715,-0.0703,-0.069,-0.067,-0.0697,-0.0644,-0.0642,-0.0547,-0.0533,-0.0689,-0.0616,-0.0615,-0.0614,-0.0614,0,-0.0569,-0.0589,-0.0611,-0.0631,-0.0637,-0.0645,-0.0662,-0.0663,-0.0672,-0.0689,-0.0699,-0.0706,-0.0697,-0.0706,-0.0665,-0.0684,-0.066,-0.0645,-0.0642,-0.0547,-0.0544,-0.0595,-0.0605,-0.0606,-0.0606,-0.0607,-0.0608,0,-0.0575,-0.0598,-0.0621,-0.0628,-0.065,-0.0662,-0.0668,-0.0678,-0.0684,-0.07,-0.0711,-0.0705,-0.0705,-0.068,-0.0637,-0.066,-0.0579,-0.061,-0.05,-0.0493,-0.0589,-0.0591,-0.0573,-0.0573,-0.0573,-0.0574,-0.0574,0,-0.0578,-0.0598,-0.0635,-0.0652,-0.0681,-0.0681,-0.0702,-0.0714,-0.0717,-0.072,-0.0721,-0.0712,-0.0701,-0.0653,-0.0623,-0.0523,-0.0564,-0.0479,-0.0464,-0.0598,-0.0601,-0.0585,-0.0588,-0.0571,-0.0571,-0.0572,-0.0572,0,-0.058,-0.0605,-0.0637,-0.0673,-0.069,-0.0709,-0.0728,-0.0733,-0.0739,-0.0738,-0.0745,-0.0716,-0.0643,-0.0594,-0.0538,-0.0492,-0.0423,-0.0379,-0.0493,-0.049,-0.0351,-0.0356,-0.026,-0.0256,-0.0252,-0.025,-0.0247,0,-0.0584,-0.0606,-0.0658,-0.0679,-0.07,-0.0729,-0.0742,-0.0756,-0.0757,-0.073,-0.0724,-0.0655,-0.0623,-0.0455,-0.0416,-0.0313,-0.0306,-0.0272,-0.0336,-0.0321,-0.0317,-0.0326,-0.0335,-0.0242,-0.0241,-0.0241,-0.024,0,-0.0593,-0.0615,-0.0637,-0.0682,-0.0712,-0.0735,-0.0756,-0.0759,-0.0754,-0.0763,-0.0688,-0.0607,-0.0497,-0.0409,-0.0306,-0.025,-0.03,-0.0239,-0.0247,-0.0307,-0.0299,-0.03,-0.0313,-0.0228,-0.023,-0.0231,-0.0232,0,-0.0597,-0.0609,-0.064,-0.0669,-0.0707,-0.0724,-0.0739,-0.0722,-0.072,-0.0695,-0.0664,-0.0561,-0.052,-0.0371,-0.0287,-0.0199,-0.0202,-0.0209,-0.0219,-0.0231,-0.0243,-0.0231,-0.0107,0,0,0,0,0,-0.0599,-0.0604,-0.0624,-0.0659,-0.0686,-0.0711,-0.0734,-0.0739,-0.0745,-0.0685,-0.0673,-0.0568,-0.0408,-0.0347,-0.0242,-0.024,-0.0195,-0.0114,-0.0212,-0.0166,-0.0179,-0.019,0,0,0,0,0,0,-0.0608,-0.0624,-0.0615,-0.0634,-0.0652,-0.0686,-0.07,-0.0703,-0.067,-0.0662,-0.0575,-0.0545,-0.0392,-0.0466,-0.024,-0.0214,-0.0261,-0.005,-0.0047,-0.0158,-0.017,-0.0181,-0.0196,0,0,0,0,0]}]]